FW6276 Weather Reports


time (UTC)temp
C
wind
direction
speed
KPH
gust
KPH
rain 1hr
cm
rain 24hr
cm
rain mn
cm
humidity
%
barometer
mb
20260510224006 27 242 0.0 3.2 0.00 0.00 0.00 34 1015.3
20260510223504 27 29 1.6 4.8 0.00 0.00 0.00 33 1015.2
20260510223016 27 203 1.6 4.8 0.00 0.00 0.00 34 1015.2
20260510222511 27 194 0.0 3.2 0.00 0.00 0.00 34 1015.3
20260510222008 28 73 1.6 3.2 0.00 0.00 0.00 34 1015.3
20260510221520 28 54 0.0 4.8 0.00 0.00 0.00 34 1015.2
20260510221014 28 41 1.6 4.8 0.00 0.00 0.00 33 1015.2
20260510220503 28 53 1.6 4.8 0.00 0.00 0.00 34 1015.2
20260510220008 28 131 0.0 3.2 0.00 0.00 0.00 35 1015.1
20260510215504 28 23 1.6 4.8 0.00 0.00 0.00 34 1015.1
20260510215003 28 199 1.6 4.8 0.00 0.00 0.00 35 1015.0
20260510214510 28 183 1.6 4.8 0.00 0.00 0.00 35 1015.0
20260510214003 28 121 1.6 4.8 0.00 0.00 0.00 36 1014.9
20260510213509 28 29 3.2 6.4 0.00 0.00 0.00 37 1015.0
20260510213014 28 53 1.6 6.4 0.00 0.00 0.00 36 1015.0
20260510212504 28 37 1.6 6.4 0.00 0.00 0.00 35 1015.0
20260510212004 28 357 1.6 4.8 0.00 0.00 0.00 34 1014.9
20260510211519 29 92 0.0 6.4 0.00 0.00 0.00 34 1014.9
20260510211008 28 124 1.6 8.0 0.00 0.00 0.00 33 1014.9
20260510210512 28 35 3.2 8.0 0.00 0.00 0.00 34 1014.9
20260510210022 28 60 1.6 8.0 0.00 0.00 0.00 36 1014.8
20260510205510 28 207 3.2 8.0 0.00 0.00 0.00 34 1014.7
20260510205004 28 41 1.6 6.4 0.00 0.00 0.00 35 1014.8
20260510204509 28 194 3.2 6.4 0.00 0.00 0.00 37 1014.7
20260510204004 29 117 1.6 6.4 0.00 0.00 0.00 36 1014.8
20260510203503 30 44 1.6 4.8 0.00 0.00 0.00 35 1014.8
20260510203012 29 197 1.6 4.8 0.00 0.00 0.00 35 1014.7
20260510202505 29 109 1.6 6.4 0.00 0.00 0.00 36 1014.7
20260510202005 29 53 3.2 11.3 0.00 0.00 0.00 39 1014.7
20260510201517 28 26 1.6 11.3 0.00 0.00 0.00 39 1014.7
20260510201004 28 229 3.2 6.4 0.00 0.00 0.00 39 1014.7
20260510200505 28 174 3.2 6.4 0.00 0.00 0.00 39 1014.7
20260510200021 28 198 1.6 6.4 0.00 0.00 0.00 41 1014.9
20260510195510 29 221 3.2 6.4 0.00 0.00 0.00 37 1015.0
20260510195007 29 246 3.2 6.4 0.00 0.00 0.00 37 1015.0
20260510194522 29 238 3.2 6.4 0.00 0.00 0.00 36 1015.0
20260510194008 28 160 1.6 4.8 0.00 0.00 0.00 38 1015.1
20260510193504 28 164 1.6 11.3 0.00 0.00 0.00 38 1015.2
20260510193006 28 262 4.8 11.3 0.00 0.00 0.00 40 1015.2
20260510192503 27 227 4.8 9.7 0.00 0.00 0.00 42 1015.2
20260510192004 27 129 1.6 6.4 0.00 0.00 0.00 48 1015.4
20260510191516 26 39 4.8 6.4 0.00 0.00 0.00 44 1015.3
20260510191004 26 43 4.8 6.4 0.00 0.00 0.00 44 1015.5
20260510190505 27 34 4.8 6.4 0.00 0.00 0.00 43 1015.5
20260510190017 27 28 4.8 6.4 0.00 0.00 0.00 40 1015.5
20260510185505 28 60 1.6 6.4 0.00 0.00 0.00 43 1015.6
20260510185006 27 27 3.2 6.4 0.00 0.00 0.00 44 1015.6
20260510184522 27 48 1.6 4.8 0.00 0.00 0.00 45 1015.7
20260510184008 27 195 0.0 4.8 0.00 0.00 0.00 40 1015.7
20260510183511 27 212 3.2 6.4 0.00 0.00 0.00 39 1015.7
20260510183035 28 127 1.6 8.0 0.00 0.00 0.00 39 1015.7
20260510182508 27 194 4.8 8.0 0.00 0.00 0.00 39 1015.7
20260510182004 27 190 3.2 9.7 0.00 0.00 0.00 41 1015.8
20260510181507 27 239 3.2 9.7 0.00 0.00 0.00 44 1015.9
20260510181005 27 27 4.8 9.7 0.00 0.00 0.00 42 1015.9
20260510180508 27 32 4.8 8.0 0.00 0.00 0.00 43 1015.9
20260510180014 28 42 1.6 8.0 0.00 0.00 0.00 40 1016.0
20260510175507 28 45 3.2 11.3 0.00 0.00 0.00 44 1016.1
20260510175005 27 6 1.6 11.3 0.00 0.00 0.00 44 1016.2
20260510174518 27 70 3.2 8.0 0.00 0.00 0.00 41 1016.1
20260510174007 27 64 1.6 8.0 0.00 0.00 0.00 43 1016.2
20260510173508 27 51 1.6 8.0 0.00 0.00 0.00 44 1016.1
20260510173023 27 42 1.6 8.0 0.00 0.00 0.00 43 1016.1
20260510172509 27 31 3.2 6.4 0.00 0.00 0.00 47 1016.1
20260510172011 27 34 3.2 6.4 0.00 0.00 0.00 45 1016.2
20260510171524 27 1 4.8 6.4 0.00 0.00 0.00 42 1016.2
20260510171008 27 18 3.2 6.4 0.00 0.00 0.00 44 1016.2
20260510170506 27 27 3.2 6.4 0.00 0.00 0.00 50 1016.2
20260510170014 26 43 1.6 8.0 0.00 0.00 0.00 50 1016.2
20260510165505 26 26 4.8 8.0 0.00 0.00 0.00 46 1016.2
20260510165005 26 38 4.8 8.0 0.00 0.00 0.00 47 1016.2
20260510164526 26 53 4.8 8.0 0.00 0.00 0.00 48 1016.3
20260510164006 26 43 1.6 6.4 0.00 0.00 0.00 47 1016.3
20260510163506 26 44 1.6 4.8 0.00 0.00 0.00 46 1016.3
20260510163020 26 111 1.6 4.8 0.00 0.00 0.00 49 1016.2
20260510162509 26 99 1.6 3.2 0.00 0.00 0.00 48 1016.3
20260510162006 25 58 3.2 8.0 0.00 0.00 0.00 51 1016.4
20260510161507 25 44 6.4 8.0 0.00 0.00 0.00 52 1016.4
20260510161004 25 48 4.8 9.7 0.00 0.00 0.00 54 1016.4
20260510160504 25 45 6.4 9.7 0.00 0.00 0.00 54 1016.4
20260510160009 25 32 6.4 9.7 0.00 0.00 0.00 48 1016.4
20260510155508 25 24 3.2 8.0 0.00 0.00 0.00 50 1016.4
20260510155004 25 34 3.2 9.7 0.00 0.00 0.00 55 1016.4
20260510154514 25 26 6.4 11.3 0.00 0.00 0.00 52 1016.4
20260510154006 25 37 8.0 11.3 0.00 0.00 0.00 48 1016.5
20260510153504 26 28 4.8 8.0 0.00 0.00 0.00 52 1016.6
20260510153025 26 20 3.2 8.0 0.00 0.00 0.00 52 1016.5
20260510152513 26 37 3.2 9.7 0.00 0.00 0.00 55 1016.7
20260510152010 25 45 6.4 9.7 0.00 0.00 0.00 53 1016.7
20260510151520 26 11 3.2 9.7 0.00 0.00 0.00 47 1016.7
20260510151007 25 18 3.2 9.7 0.00 0.00 0.00 52 1016.7
20260510150512 25 31 4.8 9.7 0.00 0.00 0.00 56 1016.7
20260510150004 25 30 4.8 9.7 0.00 0.00 0.00 53 1016.6
20260510145507 25 24 4.8 8.0 0.00 0.00 0.00 56 1016.5
20260510145005 25 28 3.2 8.0 0.00 0.00 0.00 56 1016.6
20260510144511 25 65 3.2 11.3 0.00 0.00 0.00 55 1016.5
20260510144007 25 21 6.4 11.3 0.00 0.00 0.00 52 1016.4
20260510143507 26 58 1.6 6.4 0.00 0.00 0.00 54 1016.5
20260510143013 25 34 3.2 11.3 0.00 0.00 0.00 57 1016.5
20260510142505 25 30 6.4 11.3 0.00 0.00 0.00 58 1016.6
20260510142008 25 32 1.6 8.0 0.00 0.00 0.00 59 1016.5
20260510141519 25 356 3.2 8.0 0.00 0.00 0.00 59 1016.4
20260510141008 25 27 3.2 8.0 0.00 0.00 0.00 59 1016.3
20260510140511 25 28 4.8 8.0 0.00 0.00 0.00 59 1016.3
20260510140023 25 36 3.2 6.4 0.00 0.00 0.00 63 1016.4
20260510135508 24 20 3.2 6.4 0.00 0.00 0.00 63 1016.4
20260510135007 23 26 4.8 6.4 0.00 0.00 0.00 68 1016.4
20260510134508 23 29 3.2 6.4 0.00 0.00 0.00 68 1016.4
20260510134004 23 56 1.6 3.2 0.00 0.00 0.00 72 1016.5
20260510133504 22 52 3.2 3.2 0.00 0.00 0.00 74 1016.5
20260510133012 22 48 3.2 4.8 0.00 0.00 0.00 74 1016.4
20260510132503 22 37 3.2 4.8 0.00 0.00 0.00 73 1016.4
20260510132007 22 28 4.8 4.8 0.00 0.00 0.00 73 1016.3
20260510131514 23 34 3.2 4.8 0.00 0.00 0.00 73 1016.3
20260510131005 23 46 1.6 3.2 0.00 0.00 0.00 69 1016.2
20260510130505 23 54 0.0 3.2 0.00 0.00 0.00 71 1016.3
20260510130028 23 186 1.6 3.2 0.00 0.00 0.00 72 1016.3
20260510125509 23 151 1.6 3.2 0.00 0.00 0.00 73 1016.2
20260510125011 23 83 1.6 3.2 0.00 0.00 0.00 72 1016.1
20260510124533 22 36 0.0 1.6 0.00 0.00 0.00 76 1016.1
20260510124013 22 197 0.0 3.2 0.00 0.00 0.00 79 1016.1
20260510123510 21 161 0.0 3.2 0.00 0.00 0.00 81 1016.2
20260510123009 20 181 1.6 3.2 0.00 0.00 0.00 84 1016.2
20260510122504 20 51 1.6 3.2 0.00 0.00 0.00 85 1016.1
20260510122003 20 55 1.6 3.2 0.00 0.00 0.00 85 1016.1
20260510121513 19 44 0.0 1.6 0.00 0.05 0.00 87 1016.1
20260510121008 18 44 0.0 3.2 0.00 0.08 0.00 88 1015.9
20260510120508 18 44 1.6 3.2 0.00 0.08 0.00 88 1015.8
20260510120016 18 204 0.0 1.6 0.00 0.18 0.00 89 1015.8
20260510115507 18 204 0.0 0.0 0.00 0.18 0.00 89 1015.8
20260510115006 18 204 0.0 0.0 0.00 0.18 0.00 90 1015.6
20260510114522 17 204 0.0 0.0 0.00 0.18 0.00 92 1015.6
20260510114010 17 204 0.0 0.0 0.00 0.18 0.00 93 1015.6
20260510113507 16 204 0.0 0.0 0.00 0.18 0.00 94 1015.6
20260510113030 16 204 0.0 0.0 0.00 0.18 0.00 95 1015.6
20260510112512 16 204 0.0 0.0 0.00 0.18 0.00 96 1015.5
20260510112011 15 204 0.0 0.0 0.00 0.18 0.00 96 1015.4
20260510111512 15 204 0.0 0.0 0.00 0.18 0.00 96 1015.3
20260510111005 15 204 0.0 0.0 0.00 0.18 0.00 96 1015.3
20260510110512 15 204 0.0 0.0 0.00 0.18 0.00 96 1015.2
20260510110017 15 204 0.0 0.0 0.00 0.18 0.00 96 1015.1
20260510105507 15 204 0.0 0.0 0.00 0.18 0.00 96 1015.0
20260510105007 15 204 0.0 0.0 0.00 0.18 0.00 96 1014.9
20260510104524 14 204 0.0 0.0 0.00 0.18 0.00 96 1014.7
20260510104007 14 204 0.0 0.0 0.00 0.18 0.00 96 1014.7
20260510103508 14 204 0.0 0.0 0.00 0.18 0.00 96 1014.7
20260510103028 14 204 0.0 0.0 0.00 0.18 0.00 96 1014.6
20260510102508 15 204 0.0 0.0 0.00 0.18 0.00 96 1014.5
20260510102008 14 204 0.0 0.0 0.00 0.18 0.00 96 1014.5
20260510101527 14 204 0.0 0.0 0.00 0.18 0.00 95 1014.4
20260510101013 15 204 0.0 0.0 0.00 0.18 0.00 96 1014.4
20260510100516 15 204 0.0 0.0 0.00 0.18 0.00 96 1014.4
20260510100009 15 204 0.0 0.0 0.00 0.18 0.00 95 1014.3
20260510095505 15 204 0.0 0.0 0.00 0.18 0.00 96 1014.2
20260510095006 15 204 0.0 0.0 0.00 0.18 0.00 96 1014.1
20260510094514 15 204 0.0 0.0 0.00 0.18 0.00 96 1014.0
20260510094008 15 204 0.0 0.0 0.00 0.18 0.00 96 1014.0
20260510093509 15 204 0.0 0.0 0.00 0.18 0.00 96 1013.9
20260510093019 15 204 0.0 1.6 0.00 0.18 0.00 96 1013.9
20260510092512 15 203 0.0 1.6 0.00 0.18 0.00 95 1013.9
20260510092012 15 232 0.0 1.6 0.00 0.18 0.00 95 1013.7
20260510091542 15 232 0.0 1.6 0.00 0.18 0.00 96 1013.5
20260510091010 15 232 0.0 0.0 0.00 0.18 0.00 96 1013.5
20260510090509 15 232 0.0 0.0 0.00 0.18 0.00 96 1013.5
20260510090026 15 232 0.0 0.0 0.00 0.18 0.00 96 1013.5
20260510085510 15 232 0.0 1.6 0.00 0.18 0.00 96 1013.4
20260510085009 15 232 0.0 1.6 0.00 0.18 0.00 96 1013.4
20260510084513 15 232 0.0 0.0 0.00 0.18 0.00 95 1013.4
20260510084006 15 232 0.0 0.0 0.00 0.18 0.00 95 1013.3
20260510083515 15 232 0.0 0.0 0.00 0.18 0.00 95 1013.4
20260510083016 15 232 0.0 3.2 0.00 0.18 0.00 95 1013.4
20260510082504 15 232 0.0 3.2 0.00 0.18 0.00 96 1013.4
20260510082008 15 228 1.6 3.2 0.00 0.18 0.00 96 1013.3
20260510081532 15 224 1.6 3.2 0.00 0.18 0.00 96 1013.3
20260510081005 15 216 1.6 3.2 0.00 0.18 0.00 96 1013.2
20260510080508 15 226 1.6 1.6 0.00 0.18 0.00 95 1013.2
20260510080025 15 195 0.0 0.0 0.00 0.18 0.00 95 1013.1
20260510075514 15 195 0.0 0.0 0.00 0.18 0.00 95 1013.1
20260510075007 15 195 0.0 0.0 0.00 0.18 0.00 95 1013.0
20260510074530 15 195 0.0 0.0 0.00 0.18 0.00 95 1013.0
20260510074019 15 195 0.0 0.0 0.00 0.18 0.00 95 1013.0
20260510073522 15 195 0.0 0.0 0.00 0.18 0.00 95 1013.1
20260510073022 15 195 0.0 0.0 0.00 0.18 0.00 95 1013.2
20260510072507 15 195 0.0 1.6 0.00 0.18 0.00 95 1013.2
20260510072006 15 195 0.0 1.6 0.00 0.18 0.00 95 1013.2
20260510071529 15 195 0.0 1.6 0.00 0.18 0.00 95 1013.2
20260510071009 15 225 0.0 1.6 0.00 0.18 0.00 95 1013.1
20260510070506 15 225 0.0 1.6 0.00 0.18 0.00 95 1013.0
20260510070027 15 225 0.0 1.6 0.00 0.18 0.00 95 1013.0
20260510065510 15 225 0.0 1.6 0.00 0.18 0.00 95 1013.0
20260510065009 15 225 0.0 0.0 0.00 0.18 0.00 95 1012.9
20260510064527 15 225 0.0 0.0 0.00 0.18 0.00 95 1012.9
20260510064003 15 225 0.0 0.0 0.00 0.18 0.00 95 1013.1
20260510063503 15 225 0.0 0.0 0.00 0.18 0.00 95 1013.1
20260510063018 15 225 0.0 0.0 0.00 0.18 0.00 94 1013.2
20260510062503 15 225 0.0 3.2 0.00 0.18 0.00 94 1013.3
20260510062007 15 225 0.0 3.2 0.00 0.18 0.00 95 1013.4
20260510061530 15 232 1.6 3.2 0.00 0.18 0.00 95 1013.5
20260510061007 15 229 1.6 3.2 0.00 0.18 0.00 94 1013.4
20260510060506 15 203 0.0 1.6 0.00 0.18 0.00 95 1013.3
20260510060030 15 203 0.0 1.6 0.00 0.18 0.00 94 1013.3
20260510055505 15 203 0.0 0.0 0.00 0.18 0.00 94 1013.2
20260510055006 15 205 0.0 0.0 0.00 0.18 0.00 94 1013.2
20260510054527 15 205 0.0 0.0 0.00 0.18 0.00 94 1013.2
20260510054007 15 205 0.0 0.0 0.00 0.18 0.00 94 1013.2
20260510053513 16 205 0.0 0.0 0.00 0.18 0.00 94 1013.2
20260510053011 16 205 0.0 0.0 0.00 0.18 0.00 94 1013.2
20260510052503 16 205 0.0 0.0 0.00 0.18 0.00 94 1013.2
20260510052010 16 205 0.0 0.0 0.00 0.18 0.00 94 1013.3
20260510051512 16 205 0.0 0.0 0.00 0.18 0.00 94 1013.4
20260510051007 16 205 0.0 0.0 0.00 0.18 0.00 94 1013.5
20260510050506 16 205 0.0 0.0 0.00 0.18 0.00 94 1013.5
20260510050020 16 205 0.0 0.0 0.00 0.18 0.00 94 1013.5
20260510045509 16 205 0.0 0.0 0.00 0.18 0.00 94 1013.4
20260510045015 16 205 0.0 0.0 0.00 0.18 0.00 94 1013.3
20260510044523 16 205 0.0 0.0 0.00 0.18 0.00 94 1013.4
20260510044011 16 205 0.0 0.0 0.00 0.18 0.00 94 1013.5
20260510043511 16 205 0.0 0.0 0.00 0.18 0.00 94 1013.5
20260510043026 16 205 0.0 0.0 0.00 0.18 0.00 94 1013.4
20260510042510 16 205 0.0 0.0 0.00 0.18 0.00 94 1013.5
20260510042010 16 205 0.0 0.0 0.00 0.18 0.00 94 1013.4
20260510041511 16 205 0.0 0.0 0.00 0.18 0.00 94 1013.5
20260510041003 15 205 0.0 0.0 0.00 0.18 0.00 94 1013.5
20260510040503 15 205 0.0 0.0 0.00 0.18 0.00 93 1013.5
20260510040017 15 205 0.0 0.0 0.00 0.18 0.00 93 1013.5
20260510035504 15 205 0.0 0.0 0.00 0.18 0.18 93 1013.5
20260510035007 16 205 0.0 0.0 0.00 0.18 0.18 93 1013.5
20260510034521 15 205 0.0 0.0 0.00 0.18 0.18 93 1013.5
20260510034011 16 205 0.0 0.0 0.00 0.18 0.18 92 1013.5
20260510033507 16 205 0.0 0.0 0.00 0.18 0.18 92 1013.4
20260510033024 16 205 0.0 0.0 0.00 0.18 0.18 92 1013.4
20260510032507 16 205 0.0 0.0 0.00 0.18 0.18 92 1013.4
20260510032011 16 205 0.0 0.0 0.00 0.18 0.18 91 1013.4
20260510031527 16 205 0.0 1.6 0.00 0.18 0.18 91 1013.5
20260510031011 16 205 0.0 1.6 0.00 0.18 0.18 91 1013.4
20260510030508 16 207 0.0 1.6 0.00 0.18 0.18 91 1013.5
20260510030011 16 207 0.0 1.6 0.00 0.18 0.18 90 1013.4
20260510025503 16 207 0.0 1.6 0.00 0.18 0.18 90 1013.4
20260510025007 16 207 0.0 1.6 0.00 0.18 0.18 90 1013.5
20260510024516 16 207 0.0 1.6 0.00 0.18 0.18 90 1013.5
20260510024010 16 207 0.0 1.6 0.00 0.18 0.18 90 1013.5
20260510023507 16 207 0.0 1.6 0.00 0.18 0.18 90 1013.4
20260510023020 16 203 0.0 1.6 0.00 0.18 0.18 90 1013.4
20260510022508 16 200 0.0 0.0 0.00 0.18 0.18 90 1013.4
20260510022011 16 200 0.0 0.0 0.00 0.18 0.18 90 1013.4
20260510021523 16 200 0.0 0.0 0.00 0.18 0.18 89 1013.3
20260510021008 16 200 0.0 0.0 0.00 0.18 0.18 89 1013.3
20260510020509 17 200 0.0 0.0 0.00 0.18 0.18 89 1013.3
20260510020028 17 200 0.0 0.0 0.00 0.18 0.18 89 1013.2
20260510015509 17 200 0.0 0.0 0.00 0.18 0.18 88 1013.2
20260510015010 17 200 0.0 0.0 0.00 0.18 0.18 88 1013.1
20260510014515 17 200 0.0 0.0 0.00 0.18 0.18 88 1013.0
20260510014003 17 200 0.0 0.0 0.00 0.18 0.18 88 1012.9
20260510013505 17 200 0.0 0.0 0.00 0.18 0.18 88 1012.8
20260510013020 17 200 0.0 0.0 0.00 0.18 0.18 88 1012.8
20260510012508 17 200 0.0 0.0 0.00 0.18 0.18 87 1012.8
20260510012009 17 200 0.0 0.0 0.00 0.18 0.18 87 1012.8
20260510011524 17 200 0.0 0.0 0.00 0.18 0.18 87 1012.7
20260510011008 18 200 0.0 0.0 0.00 0.18 0.18 86 1012.6
20260510010510 18 200 0.0 0.0 0.00 0.18 0.18 86 1012.5
20260510010027 18 200 0.0 0.0 0.00 0.18 0.18 87 1012.3
20260510005507 18 200 0.0 0.0 0.00 0.18 0.18 84 1012.3
20260510005007 18 200 0.0 0.0 0.00 0.18 0.18 84 1012.2
20260510004527 18 200 0.0 0.0 0.00 0.18 0.18 84 1012.1
20260510004015 18 200 0.0 0.0 0.00 0.18 0.18 85 1012.1
20260510003516 19 200 0.0 0.0 0.00 0.18 0.18 83 1012.1
20260510003013 19 199 0.0 0.0 0.00 0.18 0.18 82 1012.1
20260510002504 19 200 0.0 0.0 0.00 0.18 0.18 81 1012.1
20260510002007 20 200 0.0 0.0 0.00 0.18 0.18 81 1012.0
20260510001518 20 200 0.0 0.0 0.00 0.18 0.18 79 1011.9
20260510001008 20 200 0.0 0.0 0.00 0.18 0.18 77 1011.9
20260510000507 20 200 0.0 0.0 0.00 0.18 0.18 76 1011.7
20260510000025 21 200 0.0 0.0 0.00 0.18 0.18 75 1011.7
20260509235507 21 200 0.0 0.0 0.00 0.18 0.18 74 1011.6
20260509235012 21 200 0.0 1.6 0.00 0.18 0.18 73 1011.5
20260509234535 21 200 0.0 3.2 0.00 0.18 0.18 73 1011.5
20260509234009 21 205 0.0 3.2 0.00 0.18 0.18 72 1011.5
20260509233512 21 218 1.6 6.4 0.00 0.18 0.18 71 1011.6
20260509233038 22 236 1.6 6.4 0.00 0.18 0.18 71 1011.5
20260509232510 22 184 1.6 4.8 0.00 0.18 0.18 71 1011.4
20260509232011 22 248 1.6 4.8 0.00 0.18 0.18 71 1011.4
20260509231516 22 235 1.6 8.0 0.00 0.18 0.18 71 1011.4
20260509231004 22 177 1.6 8.0 0.00 0.18 0.18 71 1011.4
20260509230510 22 174 3.2 6.4 0.00 0.18 0.18 70 1011.4
20260509230022 22 203 1.6 6.4 0.00 0.18 0.18 71 1011.3
20260509225510 22 136 3.2 6.4 0.00 0.18 0.18 71 1011.2
20260509225009 22 184 3.2 6.4 0.00 0.18 0.18 70 1011.1
20260509224524 22 207 1.6 8.0 0.00 0.18 0.18 70 1011.1